sat.trackr.live / text

‹ back to catalog

YAOGAN-30 07A

NORAD 45460 · 2020-021A

PAYLOAD ACTIVE UNKNOWN

§ Identity

Operator
Country
PRC
Launch date
2020-03-24
Launch site
XICLF
Launch vehicle
Mass (kg)
RCS (m²)

External: N2YO · Heavens-Above · Gunter

§ Orbital elements

Epoch: 2026-09-20T05:30:43.159680Z

Period
95.80 min
Inclination
34.9965°
Eccentricity
0.0003183
Mean motion
15.03094951 rev/d
Perigee alt
555.2 km
Apogee alt
559.6 km
Semi-major
6,935.5 km
B*
1.2779e-4
RAAN
351.4393°
Arg perigee
152.7202°
Mean anomaly
207.3674°
Rev number
35,486

§ Raw data

YAOGAN-30 07A1 45460U 20021A   26263.22966620  .00001730  00000+0  12779-3 0  99952 45460  34.9965 351.4393 0003183 152.7202 207.3674 15.03094951354861

JSON: /api/v1/satellites/45460 · /tle

For live sub-satellite position, see the globe view (requires WebGL).

§ Visibility from observer

Set your observer location to see the next 7 days of passes ≥ 10°. The values pass through the URL so the page stays shareable.

No JS? Fill the form by hand. The geolocation button needs JavaScript.